Starlink 34616

operational
NORAD ID: 66320 Int'l Des: 2025-253 Owner: SPXS Country: US Constellation: starlink
LEOCIRCULAR

关于 Starlink 34616

正在加载描述...

实时位置

正在加载3D地球...

即将过境

高度历史

Altitude vs Time

uPlot chart will show altitude changes over time

两行轨道根数

1 66320C 25253B 25310.13937500 .00770700 00000+0 12012-2 0 3108
2 66320 43.0037 205.2022 0006729 236.3339 319.8837 16.02263659 12
Epoch: Nov 6, 2025 • Age: 25 hours

当前状态

高度 268.7 km
速度 7.75 km/s
星下点 37.94°N, 104.99°W
发射日期 Nov 6, 2025
运行时间 N/A
类型 internet

技术详情

分类 Payload
质量 575.00 kg
干质量 530.00 kg
总质量 575.00 kg
长度 0.30 m
直径 4.10 m
跨度 29.00 m
形状 Box + pan
制造商 SPXS
平台类型 Starlink V2MO
阶段状态 In Orbit
所有者/国家 SPXS/US

大型星座

Loading constellations...